Year,Month,Day,Hour,Minute,Value (Times are PST for windspeed in km/hr)
2019,05,01,00,00,10.10
2019,05,01,00,01,13.10
2019,05,01,00,02,11.80
2019,05,01,00,03,10.40
2019,05,01,00,04,9.00
2019,05,01,00,05,10.40
2019,05,01,00,06,11.90
2019,05,01,00,07,10.50
2019,05,01,00,08,11.20
2019,05,01,00,09,11.40
2019,05,01,00,10,7.00
2019,05,01,00,11,8.00
2019,05,01,00,12,7.00
2019,05,01,00,13,6.00
2019,05,01,00,14,11.10
2019,05,01,00,15,5.70
2019,05,01,00,16,5.20
2019,05,01,00,17,7.40
2019,05,01,00,18,7.90
2019,05,01,00,19,8.50
2019,05,01,00,20,7.00
2019,05,01,00,21,13.20
2019,05,01,00,22,11.30
2019,05,01,00,23,7.90
2019,05,01,00,24,6.90
2019,05,01,00,25,7.50
2019,05,01,00,26,8.10
2019,05,01,00,27,7.30
2019,05,01,00,28,9.20
2019,05,01,00,29,10.90
2019,05,01,00,30,7.50
2019,05,01,00,31,11.40
2019,05,01,00,32,6.10
2019,05,01,00,33,9.40
2019,05,01,00,34,10.80
2019,05,01,00,35,7.70
2019,05,01,00,36,5.10
2019,05,01,00,37,3.70
2019,05,01,00,38,3.10
2019,05,01,00,39,2.70
2019,05,01,00,40,1.90
2019,05,01,00,41,2.70
2019,05,01,00,42,5.10
2019,05,01,00,43,2.70
2019,05,01,00,44,3.90
2019,05,01,00,45,4.50
2019,05,01,00,46,3.90
2019,05,01,00,47,5.40
2019,05,01,00,48,7.30
2019,05,01,00,49,8.40
2019,05,01,00,50,7.10
2019,05,01,00,51,7.70
2019,05,01,00,52,8.80
2019,05,01,00,53,9.00
2019,05,01,00,54,7.00
2019,05,01,00,55,7.00
2019,05,01,00,56,12.50
2019,05,01,00,57,10.90
2019,05,01,00,58,12.10
2019,05,01,00,59,14.20
2019,05,01,01,00,9.40
2019,05,01,01,01,6.50
2019,05,01,01,02,13.40
2019,05,01,01,03,11.20
2019,05,01,01,04,11.10
2019,05,01,01,05,12.60
2019,05,01,01,06,6.70
2019,05,01,01,07,12.80
2019,05,01,01,08,12.90
2019,05,01,01,09,10.70
2019,05,01,01,10,7.00
2019,05,01,01,11,12.90
2019,05,01,01,12,10.20
2019,05,01,01,13,13.50
2019,05,01,01,14,10.80
2019,05,01,01,15,9.30
2019,05,01,01,16,10.00
2019,05,01,01,17,8.50
2019,05,01,01,18,8.40
2019,05,01,01,19,9.10
2019,05,01,01,20,3.20
2019,05,01,01,21,10.60
2019,05,01,01,22,11.50
2019,05,01,01,23,8.80
2019,05,01,01,24,5.10
2019,05,01,01,25,10.70
2019,05,01,01,26,10.70
2019,05,01,01,27,8.30
2019,05,01,01,28,8.80
2019,05,01,01,29,10.50
2019,05,01,01,30,11.00
2019,05,01,01,31,8.40
2019,05,01,01,32,10.40
2019,05,01,01,33,9.30
2019,05,01,01,34,11.40
2019,05,01,01,35,11.00
2019,05,01,01,36,11.50
2019,05,01,01,37,11.10
2019,05,01,01,38,12.60
2019,05,01,01,39,12.10
2019,05,01,01,40,14.60
2019,05,01,01,41,10.50
2019,05,01,01,42,11.30
2019,05,01,01,43,12.70
2019,05,01,01,44,11.70
2019,05,01,01,45,11.10
2019,05,01,01,46,13.40
2019,05,01,01,47,8.30
2019,05,01,01,48,14.50
2019,05,01,01,49,12.20
2019,05,01,01,50,16.70
2019,05,01,01,51,10.10
2019,05,01,01,52,13.20
2019,05,01,01,53,11.80
2019,05,01,01,54,12.00
2019,05,01,01,55,8.70
2019,05,01,01,56,10.20
2019,05,01,01,57,9.60
2019,05,01,01,58,15.90
2019,05,01,01,59,13.90
2019,05,01,02,00,14.90
2019,05,01,02,01,15.20
2019,05,01,02,02,11.50
2019,05,01,02,03,12.20
2019,05,01,02,04,15.60
2019,05,01,02,05,11.30
2019,05,01,02,06,9.70
2019,05,01,02,07,12.80
2019,05,01,02,08,13.70
2019,05,01,02,09,13.80
2019,05,01,02,10,13.30
2019,05,01,02,11,11.20
2019,05,01,02,12,11.90
2019,05,01,02,13,17.50
2019,05,01,02,14,12.00
2019,05,01,02,15,10.90
2019,05,01,02,16,10.20
2019,05,01,02,17,10.70
2019,05,01,02,18,13.20
2019,05,01,02,19,14.10
2019,05,01,02,20,16.00
2019,05,01,02,21,12.20
2019,05,01,02,22,12.00
2019,05,01,02,23,14.20
2019,05,01,02,24,12.30
2019,05,01,02,25,10.50
2019,05,01,02,26,16.60
2019,05,01,02,27,11.70
2019,05,01,02,28,10.40
2019,05,01,02,29,11.00
2019,05,01,02,30,14.60
2019,05,01,02,31,16.20
2019,05,01,02,32,9.70
2019,05,01,02,33,7.70
2019,05,01,02,34,6.40
2019,05,01,02,35,7.70
2019,05,01,02,36,12.20
2019,05,01,02,37,11.10
2019,05,01,02,38,9.70
2019,05,01,02,39,7.60
2019,05,01,02,40,9.10
2019,05,01,02,41,8.30
2019,05,01,02,42,7.10
2019,05,01,02,43,9.70
2019,05,01,02,44,9.70
2019,05,01,02,45,9.30
2019,05,01,02,46,3.90
2019,05,01,02,47,7.30
2019,05,01,02,48,6.80
2019,05,01,02,49,5.30
2019,05,01,02,50,3.90
2019,05,01,02,51,9.50
2019,05,01,02,52,7.80
2019,05,01,02,53,4.00
2019,05,01,02,54,5.60
2019,05,01,02,55,2.60
2019,05,01,02,56,3.90
2019,05,01,02,57,4.20
2019,05,01,02,58,2.20
2019,05,01,02,59,4.30
2019,05,01,03,00,6.30
2019,05,01,03,01,3.50
2019,05,01,03,02,3.70
2019,05,01,03,03,5.80
2019,05,01,03,04,5.00
2019,05,01,03,05,5.80
2019,05,01,03,06,5.30
2019,05,01,03,07,5.40
2019,05,01,03,08,5.10
2019,05,01,03,09,2.00
2019,05,01,03,10,6.30
2019,05,01,03,11,2.40
2019,05,01,03,12,5.70
2019,05,01,03,13,4.80
2019,05,01,03,14,5.50
2019,05,01,03,15,2.70
2019,05,01,03,16,3.70
2019,05,01,03,17,5.20
2019,05,01,03,18,5.10
2019,05,01,03,19,4.20
2019,05,01,03,20,2.30
2019,05,01,03,21,2.50
2019,05,01,03,22,2.70
2019,05,01,03,23,6.20
2019,05,01,03,24,2.90
2019,05,01,03,25,7.00
2019,05,01,03,26,4.60
2019,05,01,03,27,7.90
2019,05,01,03,28,4.80
2019,05,01,03,29,2.80
2019,05,01,03,30,2.70
2019,05,01,03,31,4.10
2019,05,01,03,32,3.00
2019,05,01,03,33,5.20
2019,05,01,03,34,4.00
2019,05,01,03,35,6.70
2019,05,01,03,36,4.30
2019,05,01,03,37,4.50
2019,05,01,03,38,5.70
2019,05,01,03,39,8.30
2019,05,01,03,40,12.20
2019,05,01,03,41,7.40
2019,05,01,03,42,4.10
2019,05,01,03,43,5.60
2019,05,01,03,44,8.60
2019,05,01,03,45,6.70
2019,05,01,03,46,5.60
2019,05,01,03,47,3.00
2019,05,01,03,48,6.40
2019,05,01,03,49,7.40
2019,05,01,03,50,6.70
2019,05,01,03,51,8.60
2019,05,01,03,52,4.30
2019,05,01,03,53,3.90
2019,05,01,03,54,4.10
2019,05,01,03,55,2.20
2019,05,01,03,56,4.90
2019,05,01,03,57,4.60
2019,05,01,03,58,3.70
2019,05,01,03,59,2.70
2019,05,01,04,00,3.70
2019,05,01,04,01,5.60
2019,05,01,04,02,4.00
2019,05,01,04,03,6.60
2019,05,01,04,04,6.50
2019,05,01,04,05,4.90
2019,05,01,04,06,7.70
2019,05,01,04,07,3.50
2019,05,01,04,08,5.30
2019,05,01,04,09,3.80
2019,05,01,04,10,3.50
2019,05,01,04,11,5.70
2019,05,01,04,12,6.90
2019,05,01,04,13,4.50
2019,05,01,04,14,3.70
2019,05,01,04,15,4.50
2019,05,01,04,16,7.20
2019,05,01,04,17,9.40
2019,05,01,04,18,11.90
2019,05,01,04,19,6.70
2019,05,01,04,20,5.40
2019,05,01,04,21,4.50
2019,05,01,04,22,2.80
2019,05,01,04,23,0.80
2019,05,01,04,24,1.30
2019,05,01,04,25,2.20
2019,05,01,04,26,0.00
2019,05,01,04,27,0.40
2019,05,01,04,28,1.10
2019,05,01,04,29,0.60
2019,05,01,04,30,0.00
2019,05,01,04,31,0.30
2019,05,01,04,32,2.00
2019,05,01,04,33,0.70
2019,05,01,04,34,0.40
2019,05,01,04,35,2.40
2019,05,01,04,36,3.30
2019,05,01,04,37,1.20
2019,05,01,04,38,0.00
2019,05,01,04,39,0.20
2019,05,01,04,40,0.00
2019,05,01,04,41,0.00
2019,05,01,04,42,0.00
2019,05,01,04,43,0.20
2019,05,01,04,44,1.70
2019,05,01,04,45,0.20
2019,05,01,04,46,0.00
2019,05,01,04,47,0.00
2019,05,01,04,48,0.00
2019,05,01,04,49,0.00
2019,05,01,04,50,0.00
2019,05,01,04,51,0.00
2019,05,01,04,52,0.00
2019,05,01,04,53,2.50
2019,05,01,04,54,0.60
2019,05,01,04,55,2.00
2019,05,01,04,56,4.10
2019,05,01,04,57,3.90
2019,05,01,04,58,3.00
2019,05,01,04,59,4.30
2019,05,01,05,00,3.10
2019,05,01,05,01,5.60
2019,05,01,05,02,8.40
2019,05,01,05,03,2.90
2019,05,01,05,04,5.20
2019,05,01,05,05,5.80
2019,05,01,05,06,2.70
2019,05,01,05,07,2.20
2019,05,01,05,08,0.30
2019,05,01,05,09,1.80
2019,05,01,05,10,3.10
2019,05,01,05,11,2.50
2019,05,01,05,12,3.90
2019,05,01,05,13,2.90
2019,05,01,05,14,5.60
2019,05,01,05,15,4.00
2019,05,01,05,16,2.70
2019,05,01,05,17,2.10
2019,05,01,05,18,1.30
2019,05,01,05,19,3.20
2019,05,01,05,20,2.70
2019,05,01,05,21,0.90
2019,05,01,05,22,3.00
2019,05,01,05,23,0.50
2019,05,01,05,24,0.60
2019,05,01,05,25,0.90
2019,05,01,05,26,0.80
2019,05,01,05,27,0.10
2019,05,01,05,28,2.20
2019,05,01,05,29,1.40
2019,05,01,05,30,1.50
2019,05,01,05,31,0.80
2019,05,01,05,32,4.60
2019,05,01,05,33,4.40
2019,05,01,05,34,2.00
2019,05,01,05,35,1.90
2019,05,01,05,36,4.20
2019,05,01,05,37,2.10
2019,05,01,05,38,5.10
2019,05,01,05,39,5.60
2019,05,01,05,40,2.80
2019,05,01,05,41,2.70
2019,05,01,05,42,4.20
2019,05,01,05,43,5.10
2019,05,01,05,44,2.70
2019,05,01,05,45,3.40
2019,05,01,05,46,4.90
2019,05,01,05,47,4.10
2019,05,01,05,48,3.80
2019,05,01,05,49,5.10
2019,05,01,05,50,5.10
2019,05,01,05,51,8.80
2019,05,01,05,52,6.70
2019,05,01,05,53,8.20
2019,05,01,05,54,4.10
2019,05,01,05,55,4.30
2019,05,01,05,56,4.20
2019,05,01,05,57,7.50
2019,05,01,05,58,4.70
2019,05,01,05,59,6.00
2019,05,01,06,00,5.30
2019,05,01,06,01,5.10
2019,05,01,06,02,5.30
2019,05,01,06,03,7.90
2019,05,01,06,04,4.30
2019,05,01,06,05,4.70
2019,05,01,06,06,10.20
2019,05,01,06,07,8.80
2019,05,01,06,08,5.70
2019,05,01,06,09,6.10
2019,05,01,06,10,6.30
2019,05,01,06,11,7.50
2019,05,01,06,12,4.70
2019,05,01,06,13,2.80
2019,05,01,06,14,5.10
2019,05,01,06,15,5.90
2019,05,01,06,16,7.50
2019,05,01,06,17,4.40
2019,05,01,06,18,10.00
2019,05,01,06,19,8.50
2019,05,01,06,20,7.70
2019,05,01,06,21,5.40
2019,05,01,06,22,4.30
2019,05,01,06,23,5.40
2019,05,01,06,24,8.70
2019,05,01,06,25,7.20
2019,05,01,06,26,5.70
2019,05,01,06,27,6.90
2019,05,01,06,28,6.20
2019,05,01,06,29,5.70
2019,05,01,06,30,10.00
2019,05,01,06,31,9.00
2019,05,01,06,32,8.40
2019,05,01,06,33,6.00
2019,05,01,06,34,8.00
2019,05,01,06,35,5.20
2019,05,01,06,36,7.40
2019,05,01,06,37,6.80
2019,05,01,06,38,6.00
2019,05,01,06,39,5.50
2019,05,01,06,40,8.00
2019,05,01,06,41,6.50
2019,05,01,06,42,7.00
2019,05,01,06,43,2.60
2019,05,01,06,44,9.70
2019,05,01,06,45,2.90
2019,05,01,06,46,2.70
2019,05,01,06,47,4.80
2019,05,01,06,48,2.70
2019,05,01,06,49,7.30
2019,05,01,06,50,9.00
2019,05,01,06,51,5.10
2019,05,01,06,52,2.80
2019,05,01,06,53,4.10
2019,05,01,06,54,6.50
2019,05,01,06,55,8.50
2019,05,01,06,56,7.20
2019,05,01,06,57,5.00
2019,05,01,06,58,9.60
2019,05,01,06,59,9.80
2019,05,01,07,00,4.70
2019,05,01,07,01,6.70
2019,05,01,07,02,8.30
2019,05,01,07,03,5.20
2019,05,01,07,04,5.40
2019,05,01,07,05,3.50
2019,05,01,07,06,3.70
2019,05,01,07,07,5.70
2019,05,01,07,08,9.30
2019,05,01,07,09,10.30
2019,05,01,07,10,8.70
2019,05,01,07,11,5.80
2019,05,01,07,12,6.80
2019,05,01,07,13,7.00
2019,05,01,07,14,9.10
2019,05,01,07,15,11.30
2019,05,01,07,16,11.10
2019,05,01,07,17,9.10
2019,05,01,07,18,9.40
2019,05,01,07,19,10.90
2019,05,01,07,20,12.20
2019,05,01,07,21,8.50
2019,05,01,07,22,15.90
2019,05,01,07,23,12.20
2019,05,01,07,24,9.30
2019,05,01,07,25,11.30
2019,05,01,07,26,4.70
2019,05,01,07,27,11.20
2019,05,01,07,28,9.10
2019,05,01,07,29,14.80
2019,05,01,07,30,9.00
2019,05,01,07,31,8.70
2019,05,01,07,32,12.00
2019,05,01,07,33,7.40
2019,05,01,07,34,9.70
2019,05,01,07,35,8.80
2019,05,01,07,36,12.00
2019,05,01,07,37,8.70
2019,05,01,07,38,8.00
2019,05,01,07,39,5.10
2019,05,01,07,40,8.60
2019,05,01,07,41,6.30
2019,05,01,07,42,12.50
2019,05,01,07,43,9.90
2019,05,01,07,44,6.70
2019,05,01,07,45,7.50
2019,05,01,07,46,11.00
2019,05,01,07,47,11.20
2019,05,01,07,48,15.00
2019,05,01,07,49,10.50
2019,05,01,07,50,10.70
2019,05,01,07,51,13.10
2019,05,01,07,52,12.90
2019,05,01,07,53,10.70
2019,05,01,07,54,14.50
2019,05,01,07,55,9.60
2019,05,01,07,56,15.60
2019,05,01,07,57,10.10
2019,05,01,07,58,8.30
2019,05,01,07,59,6.90
2019,05,01,08,00,5.20
2019,05,01,08,01,3.10
2019,05,01,08,02,8.90
2019,05,01,08,03,9.90
2019,05,01,08,04,8.90
2019,05,01,08,05,7.70
2019,05,01,08,06,9.70
2019,05,01,08,07,11.60
2019,05,01,08,08,11.50
2019,05,01,08,09,9.70
2019,05,01,08,10,8.50
2019,05,01,08,11,11.70
2019,05,01,08,12,8.00
2019,05,01,08,13,6.00
2019,05,01,08,14,15.20
2019,05,01,08,15,9.70
2019,05,01,08,16,7.00
2019,05,01,08,17,13.90
2019,05,01,08,18,9.60
2019,05,01,08,19,6.30
2019,05,01,08,20,11.00
2019,05,01,08,21,15.80
2019,05,01,08,22,7.40
2019,05,01,08,23,8.70
2019,05,01,08,24,5.40
2019,05,01,08,25,10.80
2019,05,01,08,26,9.40
2019,05,01,08,27,11.20
2019,05,01,08,28,7.70
2019,05,01,08,29,5.80
2019,05,01,08,30,10.80
2019,05,01,08,31,8.70
2019,05,01,08,32,12.20
2019,05,01,08,33,5.80
2019,05,01,08,34,5.10
2019,05,01,08,35,10.50
2019,05,01,08,36,3.90
2019,05,01,08,37,11.90
2019,05,01,08,38,9.30
2019,05,01,08,39,4.80
2019,05,01,08,40,10.80
2019,05,01,08,41,10.40
2019,05,01,08,42,6.80
2019,05,01,08,43,6.80
2019,05,01,08,44,9.00
2019,05,01,08,45,6.00
2019,05,01,08,46,3.20
2019,05,01,08,47,4.40
2019,05,01,08,48,4.70
2019,05,01,08,49,7.80
2019,05,01,08,50,9.50
2019,05,01,08,51,9.90
2019,05,01,08,52,5.40
2019,05,01,08,53,4.80
2019,05,01,08,54,5.00
2019,05,01,08,55,10.70
2019,05,01,08,56,4.50
2019,05,01,08,57,3.00
2019,05,01,08,58,7.40
2019,05,01,08,59,7.30
2019,05,01,09,00,6.00
2019,05,01,09,01,5.40
2019,05,01,09,02,12.60
2019,05,01,09,03,5.00
2019,05,01,09,04,0.70
2019,05,01,09,05,9.40
2019,05,01,09,06,9.60
2019,05,01,09,07,10.50
2019,05,01,09,08,7.90
2019,05,01,09,09,5.90
2019,05,01,09,10,14.60
2019,05,01,09,11,10.50
2019,05,01,09,12,9.10
2019,05,01,09,13,8.90
2019,05,01,09,14,13.30
2019,05,01,09,15,13.30
2019,05,01,09,16,4.70
2019,05,01,09,17,3.50
2019,05,01,09,18,0.90
2019,05,01,09,19,9.40
2019,05,01,09,20,10.60
2019,05,01,09,21,8.30
2019,05,01,09,22,5.70
2019,05,01,09,23,6.70
2019,05,01,09,24,8.00
2019,05,01,09,25,9.30
2019,05,01,09,26,6.00
2019,05,01,09,27,6.60
2019,05,01,09,28,5.50
2019,05,01,09,29,7.10
2019,05,01,09,30,2.90
2019,05,01,09,31,10.50
2019,05,01,09,32,6.40
2019,05,01,09,33,10.10
2019,05,01,09,34,6.90
2019,05,01,09,35,9.60
2019,05,01,09,36,9.00
2019,05,01,09,37,10.40
2019,05,01,09,38,13.00
2019,05,01,09,39,11.70
2019,05,01,09,40,6.90
2019,05,01,09,41,11.30
2019,05,01,09,42,7.20
2019,05,01,09,43,8.50
2019,05,01,09,44,6.40
2019,05,01,09,45,14.60
2019,05,01,09,46,15.10
2019,05,01,09,47,7.60
2019,05,01,09,48,13.70
2019,05,01,09,49,6.40
2019,05,01,09,50,5.10
2019,05,01,09,51,10.50
2019,05,01,09,52,10.00
2019,05,01,09,53,5.60
2019,05,01,09,54,10.10
2019,05,01,09,55,9.30
2019,05,01,09,56,12.50
2019,05,01,09,57,11.90
2019,05,01,09,58,13.50
2019,05,01,09,59,8.60
2019,05,01,10,00,6.00
2019,05,01,10,01,5.70
2019,05,01,10,02,4.80
2019,05,01,10,03,8.70
2019,05,01,10,04,5.60
2019,05,01,10,05,5.00
2019,05,01,10,06,9.60
2019,05,01,10,07,5.70
2019,05,01,10,08,4.30
2019,05,01,10,09,11.80
2019,05,01,10,10,6.90
2019,05,01,10,11,15.90
2019,05,01,10,12,12.10
2019,05,01,10,13,4.40
2019,05,01,10,14,14.90
2019,05,01,10,15,8.00
2019,05,01,10,16,6.40
2019,05,01,10,17,12.30
2019,05,01,10,18,13.20
2019,05,01,10,19,12.00
2019,05,01,10,20,14.30
2019,05,01,10,21,9.80
2019,05,01,10,22,6.30
2019,05,01,10,23,5.10
2019,05,01,10,24,7.70
2019,05,01,10,25,7.20
2019,05,01,10,26,9.00
2019,05,01,10,27,8.00
2019,05,01,10,28,5.00
2019,05,01,10,29,12.80
2019,05,01,10,30,13.80
2019,05,01,10,31,9.80
2019,05,01,10,32,5.60
2019,05,01,10,33,5.10
2019,05,01,10,34,8.50
2019,05,01,10,35,15.40
2019,05,01,10,36,10.50
2019,05,01,10,37,11.10
2019,05,01,10,38,8.00
2019,05,01,10,39,7.50
2019,05,01,10,40,7.60
2019,05,01,10,41,4.70
2019,05,01,10,42,4.90
2019,05,01,10,43,3.50
2019,05,01,10,44,10.70
2019,05,01,10,45,7.90
2019,05,01,10,46,10.90
2019,05,01,10,47,10.00
2019,05,01,10,48,10.30
2019,05,01,10,49,7.50
2019,05,01,10,50,8.80
2019,05,01,10,51,7.00
2019,05,01,10,52,8.90
2019,05,01,10,53,8.80
2019,05,01,10,54,7.50
2019,05,01,10,55,2.90
2019,05,01,10,56,7.10
2019,05,01,10,57,9.90
2019,05,01,10,58,9.00
2019,05,01,10,59,8.00
2019,05,01,11,00,9.60
2019,05,01,11,01,10.10
2019,05,01,11,02,16.30
2019,05,01,11,03,10.10
2019,05,01,11,04,2.60
2019,05,01,11,05,5.20
2019,05,01,11,06,10.50
2019,05,01,11,07,7.40
2019,05,01,11,08,4.90
2019,05,01,11,09,8.40
2019,05,01,11,10,14.30
2019,05,01,11,11,20.00
2019,05,01,11,12,18.20
2019,05,01,11,13,4.70
2019,05,01,11,14,7.20
2019,05,01,11,15,12.60
2019,05,01,11,16,6.60
2019,05,01,11,17,10.90
2019,05,01,11,18,7.10
2019,05,01,11,19,9.30
2019,05,01,11,20,10.50
2019,05,01,11,21,15.80
2019,05,01,11,22,13.00
2019,05,01,11,23,5.20
2019,05,01,11,24,5.80
2019,05,01,11,25,4.00
2019,05,01,11,26,9.40
2019,05,01,11,27,15.20
2019,05,01,11,28,10.90
2019,05,01,11,29,9.20
2019,05,01,11,30,3.60
2019,05,01,11,31,6.00
2019,05,01,11,32,3.40
2019,05,01,11,33,4.70
2019,05,01,11,34,4.80
2019,05,01,11,35,13.80
2019,05,01,11,36,15.70
2019,05,01,11,37,15.80
2019,05,01,11,38,16.40
2019,05,01,11,39,17.20
2019,05,01,11,40,17.20
2019,05,01,11,41,11.30
2019,05,01,11,42,14.00
2019,05,01,11,43,12.50
2019,05,01,11,44,18.90
2019,05,01,11,45,18.20
2019,05,01,11,46,8.90
2019,05,01,11,47,17.00
2019,05,01,11,48,12.30
2019,05,01,11,49,11.90
2019,05,01,11,50,17.30
2019,05,01,11,51,8.80
2019,05,01,11,52,6.10
2019,05,01,11,53,13.80
2019,05,01,11,54,12.30
2019,05,01,11,55,19.10
2019,05,01,11,56,13.90
2019,05,01,11,57,13.30
2019,05,01,11,58,9.30
2019,05,01,11,59,11.30
2019,05,01,12,00,13.10
2019,05,01,12,01,16.90
2019,05,01,12,02,12.60
2019,05,01,12,03,12.40
2019,05,01,12,04,12.00
2019,05,01,12,05,10.90
2019,05,01,12,06,13.00
2019,05,01,12,07,10.60
2019,05,01,12,08,14.00
2019,05,01,12,09,9.80
2019,05,01,12,10,4.60
2019,05,01,12,11,7.70
2019,05,01,12,12,6.00
2019,05,01,12,13,14.50
2019,05,01,12,14,9.30
2019,05,01,12,15,11.90
2019,05,01,12,16,10.50
2019,05,01,12,17,15.50
2019,05,01,12,18,12.10
2019,05,01,12,19,14.90
2019,05,01,12,20,14.10
2019,05,01,12,21,8.20
2019,05,01,12,22,13.30
2019,05,01,12,23,11.30
2019,05,01,12,24,5.90
2019,05,01,12,25,9.20
2019,05,01,12,26,7.20
2019,05,01,12,27,5.80
2019,05,01,12,28,6.00
2019,05,01,12,29,4.90
2019,05,01,12,30,7.20
2019,05,01,12,31,5.50
2019,05,01,12,32,9.60
2019,05,01,12,33,7.70
2019,05,01,12,34,13.60
2019,05,01,12,35,14.80
2019,05,01,12,36,8.70
2019,05,01,12,37,12.80
2019,05,01,12,38,11.30
2019,05,01,12,39,9.80
2019,05,01,12,40,10.30
2019,05,01,12,41,7.60
2019,05,01,12,42,7.30
2019,05,01,12,43,7.80
2019,05,01,12,44,13.70
2019,05,01,12,45,9.70
2019,05,01,12,46,5.60
2019,05,01,12,47,7.60
2019,05,01,12,48,10.40
2019,05,01,12,49,15.00
2019,05,01,12,50,10.70
2019,05,01,12,51,8.80
2019,05,01,12,52,6.90
2019,05,01,12,53,7.60
2019,05,01,12,54,10.10
2019,05,01,12,55,5.90
2019,05,01,12,56,11.60
2019,05,01,12,57,11.00
2019,05,01,12,58,3.40
2019,05,01,12,59,4.60
2019,05,01,13,00,12.50
2019,05,01,13,01,12.20
2019,05,01,13,02,4.20
2019,05,01,13,03,13.10
2019,05,01,13,04,11.40
2019,05,01,13,05,5.20
2019,05,01,13,06,7.30
2019,05,01,13,07,7.20
2019,05,01,13,08,8.00
2019,05,01,13,09,5.30
2019,05,01,13,10,4.30
2019,05,01,13,11,8.70
2019,05,01,13,12,8.20
2019,05,01,13,13,4.30
2019,05,01,13,14,7.20
2019,05,01,13,15,13.40
2019,05,01,13,16,12.70
2019,05,01,13,17,6.20
2019,05,01,13,18,12.30
2019,05,01,13,19,9.10
2019,05,01,13,20,10.70
2019,05,01,13,21,16.10
2019,05,01,13,22,19.30
2019,05,01,13,23,16.50
2019,05,01,13,24,6.70
2019,05,01,13,25,9.00
2019,05,01,13,26,18.30
2019,05,01,13,27,11.70
2019,05,01,13,28,15.50
2019,05,01,13,29,8.30
2019,05,01,13,30,6.20
2019,05,01,13,31,13.00
2019,05,01,13,32,16.80
2019,05,01,13,33,12.90
2019,05,01,13,34,7.60
2019,05,01,13,35,12.60
2019,05,01,13,36,7.70
2019,05,01,13,37,7.80
2019,05,01,13,38,13.40
2019,05,01,13,39,11.00
2019,05,01,13,40,8.40
2019,05,01,13,41,15.90
2019,05,01,13,42,10.00
2019,05,01,13,43,7.80
2019,05,01,13,44,8.00
2019,05,01,13,45,13.40
2019,05,01,13,46,7.70
2019,05,01,13,47,9.80
2019,05,01,13,48,20.40
2019,05,01,13,49,12.40
2019,05,01,13,50,9.70
2019,05,01,13,51,15.10
2019,05,01,13,52,5.30
2019,05,01,13,53,5.60
2019,05,01,13,54,9.90
2019,05,01,13,55,6.40
2019,05,01,13,56,16.90
2019,05,01,13,57,7.70
2019,05,01,13,58,4.60
2019,05,01,13,59,11.90
2019,05,01,14,00,12.60
2019,05,01,14,01,6.50
2019,05,01,14,02,11.20
2019,05,01,14,03,19.40
2019,05,01,14,04,16.60
2019,05,01,14,05,9.40
2019,05,01,14,06,9.80
2019,05,01,14,07,7.10
2019,05,01,14,08,16.70
2019,05,01,14,09,15.40
2019,05,01,14,10,20.90
2019,05,01,14,11,23.60
2019,05,01,14,12,17.80
2019,05,01,14,13,10.30
2019,05,01,14,14,10.30
2019,05,01,14,15,5.90
2019,05,01,14,16,9.30
2019,05,01,14,17,10.10
2019,05,01,14,18,12.00
2019,05,01,14,19,13.30
2019,05,01,14,20,7.10
2019,05,01,14,21,8.00
2019,05,01,14,22,12.60
2019,05,01,14,23,12.10
2019,05,01,14,24,16.10
2019,05,01,14,25,13.10
2019,05,01,14,26,6.30
2019,05,01,14,27,8.70
2019,05,01,14,28,17.30
2019,05,01,14,29,16.10
2019,05,01,14,30,11.10
2019,05,01,14,31,15.10
2019,05,01,14,32,10.20
2019,05,01,14,33,11.50
2019,05,01,14,34,8.40
2019,05,01,14,35,12.50
2019,05,01,14,36,11.80
2019,05,01,14,37,7.80
2019,05,01,14,38,8.50
2019,05,01,14,39,8.20
2019,05,01,14,40,21.90
2019,05,01,14,41,19.80
2019,05,01,14,42,10.00
2019,05,01,14,43,6.90
2019,05,01,14,44,5.50
2019,05,01,14,45,14.00
2019,05,01,14,46,18.40
2019,05,01,14,47,12.30
2019,05,01,14,48,14.80
2019,05,01,14,49,13.00
2019,05,01,14,50,8.90
2019,05,01,14,51,11.30
2019,05,01,14,52,8.20
2019,05,01,14,53,10.60
2019,05,01,14,54,17.10
2019,05,01,14,55,10.10
2019,05,01,14,56,9.30
2019,05,01,14,57,10.10
2019,05,01,14,58,11.80
2019,05,01,14,59,10.10
2019,05,01,15,00,12.80
2019,05,01,15,01,12.10
2019,05,01,15,02,7.60
2019,05,01,15,03,13.30
2019,05,01,15,04,12.50
2019,05,01,15,05,17.00
2019,05,01,15,06,11.00
2019,05,01,15,07,9.40
2019,05,01,15,08,16.50
2019,05,01,15,09,8.50
2019,05,01,15,10,10.00
2019,05,01,15,11,8.90
2019,05,01,15,12,14.60
2019,05,01,15,13,10.90
2019,05,01,15,14,8.50
2019,05,01,15,15,12.70
2019,05,01,15,16,15.10
2019,05,01,15,17,10.50
2019,05,01,15,18,14.30
2019,05,01,15,19,10.30
2019,05,01,15,20,8.90
2019,05,01,15,21,7.70
2019,05,01,15,22,6.10
2019,05,01,15,23,9.90
2019,05,01,15,24,12.00
2019,05,01,15,25,7.80
2019,05,01,15,26,9.30
2019,05,01,15,27,9.30
2019,05,01,15,28,14.40
2019,05,01,15,29,10.60
2019,05,01,15,30,13.20
2019,05,01,15,31,15.90
2019,05,01,15,32,16.20
2019,05,01,15,33,17.20
2019,05,01,15,34,13.80
2019,05,01,15,35,13.00
2019,05,01,15,36,11.00
2019,05,01,15,37,10.90
2019,05,01,15,38,6.40
2019,05,01,15,39,5.50
2019,05,01,15,40,10.70
2019,05,01,15,41,9.90
2019,05,01,15,42,9.40
2019,05,01,15,43,8.70
2019,05,01,15,44,8.10
2019,05,01,15,45,6.90
2019,05,01,15,46,6.80
2019,05,01,15,47,11.80
2019,05,01,15,48,9.90
2019,05,01,15,49,10.00
2019,05,01,15,50,11.90
2019,05,01,15,51,13.00
2019,05,01,15,52,12.40
2019,05,01,15,53,9.60
2019,05,01,15,54,9.60
2019,05,01,15,55,9.60
2019,05,01,15,56,12.40
2019,05,01,15,57,16.70
2019,05,01,15,58,13.00
2019,05,01,15,59,19.40
2019,05,01,16,00,14.80
2019,05,01,16,01,6.80
2019,05,01,16,02,6.90
2019,05,01,16,03,13.80
2019,05,01,16,04,7.40
2019,05,01,16,05,20.90
2019,05,01,16,06,9.80
2019,05,01,16,07,12.80
2019,05,01,16,08,23.90
2019,05,01,16,09,19.80
2019,05,01,16,10,13.30
2019,05,01,16,11,9.70
2019,05,01,16,12,13.40
2019,05,01,16,13,19.40
2019,05,01,16,14,14.00
2019,05,01,16,15,17.00
2019,05,01,16,16,17.60
2019,05,01,16,17,17.00
2019,05,01,16,18,12.10
2019,05,01,16,19,8.50
2019,05,01,16,20,19.90
2019,05,01,16,21,19.60
2019,05,01,16,22,15.00
2019,05,01,16,23,18.40
2019,05,01,16,24,14.60
2019,05,01,16,25,15.00
2019,05,01,16,26,9.90
2019,05,01,16,27,6.90
2019,05,01,16,28,18.60
2019,05,01,16,29,16.50
2019,05,01,16,30,12.20
2019,05,01,16,31,10.70
2019,05,01,16,32,12.70
2019,05,01,16,33,9.60
2019,05,01,16,34,12.50
2019,05,01,16,35,10.50
2019,05,01,16,36,7.20
2019,05,01,16,37,8.70
2019,05,01,16,38,13.70
2019,05,01,16,39,13.80
2019,05,01,16,40,16.20
2019,05,01,16,41,12.00
2019,05,01,16,42,11.90
2019,05,01,16,43,14.50
2019,05,01,16,44,14.90
2019,05,01,16,45,9.40
2019,05,01,16,46,8.30
2019,05,01,16,47,13.90
2019,05,01,16,48,19.20
2019,05,01,16,49,19.60
2019,05,01,16,50,14.60
2019,05,01,16,51,17.30
2019,05,01,16,52,20.50
2019,05,01,16,53,24.80
2019,05,01,16,54,29.00
2019,05,01,16,55,15.50
2019,05,01,16,56,14.80
2019,05,01,16,57,13.80
2019,05,01,16,58,19.20
2019,05,01,16,59,22.20
2019,05,01,17,00,11.10
2019,05,01,17,01,10.10
2019,05,01,17,02,9.70
2019,05,01,17,03,7.50
2019,05,01,17,04,5.10
2019,05,01,17,05,16.90
2019,05,01,17,06,11.50
2019,05,01,17,07,11.30
2019,05,01,17,08,14.60
2019,05,01,17,09,13.20
2019,05,01,17,10,6.00
2019,05,01,17,11,10.30
2019,05,01,17,12,15.60
2019,05,01,17,13,9.40
2019,05,01,17,14,10.10
2019,05,01,17,15,13.30
2019,05,01,17,16,9.70
2019,05,01,17,17,18.80
2019,05,01,17,18,12.30
2019,05,01,17,19,8.40
2019,05,01,17,20,12.60
2019,05,01,17,21,19.20
2019,05,01,17,22,14.20
2019,05,01,17,23,13.60
2019,05,01,17,24,14.20
2019,05,01,17,25,10.40
2019,05,01,17,26,7.30
2019,05,01,17,27,9.30
2019,05,01,17,28,23.70
2019,05,01,17,29,14.70
2019,05,01,17,30,18.50
2019,05,01,17,31,10.10
2019,05,01,17,32,13.60
2019,05,01,17,33,19.60
2019,05,01,17,34,11.20
2019,05,01,17,35,12.60
2019,05,01,17,36,11.50
2019,05,01,17,37,14.30
2019,05,01,17,38,13.00
2019,05,01,17,39,10.10
2019,05,01,17,40,11.70
2019,05,01,17,41,11.80
2019,05,01,17,42,8.10
2019,05,01,17,43,12.90
2019,05,01,17,44,14.10
2019,05,01,17,45,10.00
2019,05,01,17,46,10.00